Regional Weather Roundup
Issued by NWS

Home | Current Version | Previous Version | Graphics & Text | Print | Product List | Glossary On
Versions: 1 2 3 4 5 6 7 8 9 10 11 12 13 14 15 16 17 18 19 20 21 22 23 24 25 26 27 28 29 30 31 32 33 34 35 36 37 38 39 40 41 42 43 44 45 46 47 48 49 50
000
ASUS43 KMPX 290510
RWRMN
WEATHER ROUNDUP FOR MINNESOTA
NATIONAL WEATHER SERVICE TWIN CITIES/CHANHASSEN MN
1100 PM CST WED JAN 28 2015


NOTE: "FAIR" INDICATES FEW OR NO CLOUDS BELOW 12,000 FEET WITH NO
SIGNIFICANT WEATHER AND/OR OBSTRUCTIONS TO VISIBILITY. N/A MEANS
CURRENT SKY AND/OR WEATHER CONDITIONS ARE NOT AVAILABLE.

MNZ060>063-068>070-290600-
   Twin Cities Metro

CITY           SKY/WX    TMP DP  RH WIND       PRES   REMARKS
TWIN CITIES    CLOUDY    30  28  92 N7        29.86R FOG     WCI  23
ST PAUL        CLOUDY    30  29  96 NW8       29.87R FOG     WCI  22
CRYSTAL        CLOUDY    31  29  92 NW6       29.86R FOG     WCI  25
BLAINE         CLOUDY    32  32 100 NW6       29.86R FOG     WCI  26
LAKEVILLE      CLOUDY    28  28 100 NW6       29.85R FOG     WCI  22
EDEN PRAIRIE   CLOUDY    31  29  92 NW8       29.85R FOG     WCI  23
SOUTH ST PAUL  CLOUDY    32  31  96 N5        29.85R FOG     WCI  27
LAKE ELMO      CLOUDY    32  30  93 NW5       29.85R FOG     WCI  27
$$
MNZ001>005-007-008-013>017-022>024-027-028-290600-
   Northwest Minnesota

CITY           SKY/WX    TMP DP  RH WIND       PRES   REMARKS
BEMIDJI        LGT SNOW  31  30  95 NW15      29.89R WCI  21
HALLOCK        CLOUDY    18  16  93 NW22G29   30.07R WCI   0
ROSEAU         CLOUDY    28  23  80 NW18      29.97R WCI  16
WARROAD        CLOUDY    28  25  86 NW15      29.95R WCI  17
THIEF RVR FALL CLOUDY    21  21 100 NW24      29.99R WCI   4
CROOKSTON      CLOUDY    21  21 100 N22G28    30.05R WCI   5
FOSSTON        CLOUDY    25  25 100 NW16G24   29.97R FOG     WCI  12
DETROIT LAKES  CLOUDY    28  28 100 NW20G28   29.95R FOG     WCI  15
MOORHEAD       CLOUDY    30  30 100 N22G29    30.03R WCI  17
PARK RAPIDS    FLURRIES  32  30  92 NW10      29.87R WCI  24
MAHNOMEN       CLOUDY    26  26  97 NW15      29.97R WCI  14
$$
MNZ006-009>011-018-025>026-290600-
   North Central Minnesota

CITY           SKY/WX    TMP DP  RH WIND       PRES   REMARKS
BAUDETTE       CLOUDY    29  26  89 NW16      29.90R WCI  17
FLAG ISLAND    CLOUDY    28  25  86 NW17      29.92R WCI  16
INTL FALLS     CLOUDY    28  26  92 NW13      29.85R WCI  17
WASKISH        CLOUDY    30  28  93 NW10G17   29.90R WCI  21
BIG FORK       CLOUDY    30  30 100 NW7       29.84R WCI  23
LONGVILLE      MIX PCPN  30  30 100 NW6       29.85R WCI  24
GRAND RAPIDS   CLOUDY    28  27  93 CALM      29.83R
CRANE LAKE     CLOUDY    27  25  93 CALM      29.84S FOG
ORR            CLOUDY    27  25  93 CALM      29.80S FOG
COOK           CLOUDY    27  27 100 W5        29.82S FOG     WCI  21
WALKER         CLOUDY    32  30  94 NW10      29.87R WCI  23
$$
MNZ012-019>021-037-290600-
   Northeast Minnesota

CITY           SKY/WX    TMP DP  RH WIND       PRES   REMARKS
DULUTH         FRZ DRZL  28  25  88 W8        29.80S FOG     WCI  20
ELY            CLOUDY    27  25  93 W3        29.80S FOG
HIBBING        CLOUDY    28  25  88 W5        29.81S FOG     WCI  23
EVELETH        CLOUDY    28  28 100 W6        29.82S FOG     WCI  22
DULUTH HARBOR  CLOUDY    30  28  93 CALM      29.85S FOG
TWO HARBORS    CLOUDY    30  25  80 CALM      29.80S HAZE
SILVER BAY     CLOUDY    28  25  86 CALM      29.79S FOG
GRAND MARAIS     N/A     30  25  81 W6        29.81S WCI  24
G MARAIS ARPRT   N/A     25  19  80 W7        29.75S FOG     WCI  17
$$
MNZ029>031-032-039>041-046>048-054>057-064-290600-
   West Central Minnesota

CITY           SKY/WX    TMP DP  RH WIND       PRES   REMARKS
FERGUS FALLS   CLOUDY    30  28  93 NW25G32   30.00R WCI  16
WHEATON        CLOUDY    28  28 100 NW24G31   30.03R FOG     WCI  14
MORRIS         CLOUDY    32  30  93 NW24G36   29.94R FOG     WCI  19
ALEXANDRIA     CLOUDY    32  30  92 NW20G28   29.90R WCI  20
ELBOW LAKE     CLOUDY    30  30  98 NW21G30   29.95R FOG     WCI  17
WADENA         CLOUDY    30  30 100 NW13      29.89R FOG     WCI  20
GLENWOOD       CLOUDY    32  32 100 NW14G20   29.90R WCI  22
APPLETON       CLOUDY    34  32  93 NW20G32   29.96R WCI  22
BENSON         CLOUDY    34  30  86 N20G26    29.93R FOG     WCI  22
ORTONVILLE     MIX PCPN  32  28  86 NW17G29   29.98R WCI  21
MADISON        CLOUDY    37  34  87 N25G39    29.97R
WILLMAR        CLOUDY    34  32  93 NW10      29.91R FOG     WCI  26
$$
MNZ033>034-036-042>043-049>051-058-059-290600-
   Central Minnesota

CITY           SKY/WX    TMP DP  RH WIND       PRES   REMARKS
ST CLOUD       CLOUDY    29  28  96 NW7       29.87R FOG     WCI  22
SAUK CENTRE    CLOUDY    32  31  99 NW8       29.89R FOG     WCI  24
PAYNESVILLE    CLOUDY    29  29 100 W5        29.89R FOG     WCI  24
AITKIN         CLOUDY    30  27  86 CALM      29.84R HAZE
PINE RIVER     CLOUDY    30  30 100 NW5       29.90R FOG     WCI  25
BRAINERD       CLOUDY    29  28  96 W7        29.86R FOG     WCI  22
STAPLES        CLOUDY    30  30 100 NW12      29.87R FOG     WCI  21
LONG PRAIRIE   CLOUDY    32  32 100 W8        29.88R FOG     WCI  25
LITTLE FALLS   CLOUDY    30  30 100 W5        29.88R FOG     WCI  25
LITCHFIELD     CLOUDY    32  32 100 NW7       29.89R FOG     WCI  26
BUFFALO        CLOUDY    30  29  95 NW6       29.88R FOG     WCI  24
MAPLE LAKE     CLOUDY    31  31  99 NW6       29.89R FOG     WCI  25
$$
MNZ037-044-045-052-053-290600-
   East Central Minnesota

CITY           SKY/WX    TMP DP  RH WIND       PRES   REMARKS
PRINCETON      CLOUDY    30  28  93 NW6       29.87R FOG     WCI  24
CAMBRIDGE      CLOUDY    30  25  80 NW6       29.85R HAZE    WCI  24
RUSH CITY      CLOUDY    29  28  96 NW3       29.86R FOG
MOOSE LAKE     CLOUDY    30  28  93 W3        29.83R FOG
HINCKLEY       CLOUDY    30  30 100 W5        29.85R FOG     WCI  25
CLOQUET        CLOUDY    28  27  93 W6        29.82S FOG     WCI  22
MCGREGOR       CLOUDY    30  28  93 W3        29.84S VSB 1
$$
MNZ071>073-080-081-089-090-097-098-290600-
   Southwest Minnesota

CITY           SKY/WX    TMP DP  RH WIND       PRES   REMARKS
MONTEVIDEO     CLOUDY    34  34 100 N21G30    29.94R WCI  22
GRANITE FALLS  CLOUDY    33  32  98 NW17G26   29.94R WCI  22
CANBY          CLOUDY    33  32  95 NW23G30   29.98R WCI  21
MARSHALL       CLOUDY    34  28  80 N24G36    29.94R WCI  21
REDWOOD FALLS  CLOUDY    33  32  96 NW10      29.90R FOG     WCI  25
OLIVIA         CLOUDY    32  32 100 NW9       29.90R FOG     WCI  24
PIPESTONE      CLOUDY    34  30  86 N20G30    29.93R WCI  22
WINDOM         CLOUDY    34  34 100 NW22      29.88R FOG     WCI  22
WORTHINGTON    CLOUDY    34  30  86 NW25G36   29.90R WCI  21
JACKSON        CLOUDY    34  32  93 NW23G31   29.87R FOG     WCI  22
TRACY          CLOUDY    33  33  98 N25G31    29.92R FOG     WCI  21
SLAYTON        CLOUDY    32  32  99 NW25G35   29.90R FOG     WCI  19
$$
MNZ065>067-074>077-082>085-091>093-290600-
   South Central Minnesota

CITY           SKY/WX    TMP DP  RH WIND       PRES   REMARKS
MANKATO        CLOUDY    32  28  86 N12       29.85R VSB 3/4 WCI  23
NEW ULM        CLOUDY    32  32 100 N10       29.88R FOG     WCI  24
ST JAMES       CLOUDY    34  32  93 NW15      29.88R FOG     WCI  24
FAIRMONT       CLOUDY    34  28  80 N16       29.84R WCI  23
GLENCOE        CLOUDY    32  32 100 NW8       29.87R FOG     WCI  25
FARIBAULT      CLOUDY    30  30 100 N7        29.84R FOG     WCI  23
OWATONNA       DRIZZLE   32  30  93 NW9       29.82R WCI  24
WASECA         CLOUDY    32  32 100 NW10      29.84R FOG     WCI  24
ALBERT LEA     CLOUDY    34  34 100 N6        29.80R FOG     WCI  29
$$
MNZ078>079-086>088-094>096-290600-
   Southeast Minnesota

CITY           SKY/WX    TMP DP  RH WIND       PRES   REMARKS
ROCHESTER      CLOUDY    31  29  92 N8        29.79R FOG     WCI  23
RED WING       CLOUDY    30  28  93 CALM      29.83R FOG
STANTON        CLOUDY    32  30  93 N7        29.82R WCI  26
DODGE CENTER   FOG       32  30  93 N6        29.79R VSB 3/4 WCI  26
WINONA         CLOUDY    32  27  80 CALM      29.81S
AUSTIN         CLOUDY    32  30  93 N5        29.79R FOG     WCI  27
PRESTON        CLOUDY    30  28  90 NE3       29.77R FOG
$$
ABBREVIATIONS USED IN REMARKS
   TC - TEMPERATURES IN CELSIUS
  WCI - WIND CHILL INDEX
   HX - HEAT INDEX
  VSB - VISIBILITY
$$


USA.gov is the U.S. government's official web portal to all federal, state and local government web resources and services.